Location: Baix
(44.7118°N, 4.7648°E)
Time: 15:40:35
(UTC+00:00)

Tiros 1 despin weight - Visible Passes

Search period start: 26 November 2020 00:00
Search period end: 06 December 2020 00:00
Orbit: 593 x 642 km, 48.2° (Epoch: 25 November)

Date Brightness Start Highest point End Pass type
(mag) Time Alt. Az. Time Alt. Az. Time Alt. Az.
26 Nov ? 17:09:14 10° WNW 17:13:57 83° NNE 17:17:59 14° ESE visible
26 Nov ? 18:51:08 10° W 18:55:04 31° SW 18:55:04 31° SW visible
27 Nov ? 17:25:42 10° WNW 17:30:22 69° SSW 17:34:18 14° SE visible
27 Nov ? 19:08:13 10° W 19:11:20 18° SW 19:11:25 18° SW visible
28 Nov ? 17:42:15 10° WNW 17:46:40 42° SW 17:50:53 11° SE visible
29 Nov ? 17:59:02 10° W 18:02:51 25° SW 18:06:36 10° SSE visible
30 Nov ? 16:33:27 10° WNW 16:38:03 57° SSW 16:42:36 10° SE visible
30 Nov ? 18:16:32 10° WSW 18:18:53 14° SW 18:21:15 10° SSW visible
01 Dec ? 16:50:04 10° W 16:54:18 34° SW 16:58:30 10° SSE visible
02 Dec ? 17:07:02 10° W 17:10:26 20° SW 17:13:48 10° S visible
03 Dec ? 17:25:36 10° WSW 17:26:26 10° SW 17:27:15 10° SW visible
